Regional Weather Roundup
Issued by NWS

Home | Current Version | Previous Version | Graphics & Text | Print | Product List | Glossary On
Versions: 1 2 3 4 5 6 7 8 9 10 11 12 13 14 15 16 17 18 19 20 21 22 23 24 25 26 27 28 29 30 31 32 33 34 35 36 37 38 39 40 41 42 43 44 45 46 47 48 49 50
727
ASUS43 KMKX 231700
RWRWI

WISCONSIN REGIONAL WEATHER ROUNDUP
NATIONAL WEATHER SERVICE MILWAUKEE/SULLIVAN WI
1200 PM CDT FRI JUN 23 2017

NOTE: "FAIR" INDICATES FEW OR NO CLOUDS BELOW 12,000 FEET WITH NO
SIGNIFICANT WEATHER AND/OR OBSTRUCTIONS TO VISIBILITY.

WIZ001-002-006>008-014>016-023>028-231800-
NORTHWEST WISCONSIN

CITY           SKY/WX    TMP DP  RH WIND       PRES   REMARKS
SUPERIOR ARPT  NOT AVBL
ASHLAND        CLOUDY    65  49  56 NW10G22   29.70R
HAYWARD        CLOUDY    65  48  54 VRB7G18   29.73R
SIREN          CLOUDY    65  49  56 NW12      29.76R
CUMBERLAND     PTSUNNY   64  50  59 W17       29.76R
RICE LAKE      CLOUDY    65  50  58 W13G20    29.77R
CHETEK         PTSUNNY   67  53  61 W10G20    29.75R
LADYSMITH      PTSUNNY   69  52  55 W16       29.74S
EAU CLAIRE     NOT AVBL
MENOMONIE      PTSUNNY   68  52  56 W13       29.77R
NEW RICHMOND   CLOUDY    65  51  59 W16G22    29.79R
OSCEOLA        CLOUDY    68  53  56 NW13G21   29.80S
$$

WIZ003>005-009-010-017-018-231800-
NORTH CENTRAL WISCONSIN

CITY           SKY/WX    TMP DP  RH WIND       PRES   REMARKS
MANITOWISH WTR PTSUNNY   65  47  50 W10G22    29.68S
ARBOR VITAE    MOSUNNY   65  50  57 NW10G16   29.68S
WOODRUFF       MOSUNNY   65  50  57 NW10G16   29.68S
RHINELANDER    MOSUNNY   69  51  52 W17G24    29.68S
EAGLE RIVER    MOSUNNY   66  46  47 NW15G23   29.67R
LAND O LAKES   PTSUNNY   67  46  46 W10G18    29.68S
PHILLIPS       MOSUNNY   66  51  59 W7        29.70S
TOMAHAWK       NOT AVBL
MEDFORD        MOSUNNY   66  52  59 W14G21    29.71R
MERRILL        SUNNY     70  51  49 NW21      29.69R
$$

WIZ029-030-035-036-043>047-231800-
CENTRAL WISCONSIN

CITY           SKY/WX    TMP DP  RH WIND       PRES   REMARKS
WAUSAU         SUNNY     72  50  45 W12G26    29.68R
MOSINEE        MOSUNNY   72  50  46 W18G25    29.71R
MARSHFIELD     SUNNY     70  52  52 W14       29.71R
STEVENS POINT  SUNNY     71  51  48 W12G18    29.70S
WAUPACA        SUNNY     78  55  46 SW14      29.68F
WAUTOMA        MOSUNNY   76  59  55 W16       29.69F
WISC RAPIDS    SUNNY     76  55  48 W13G18    29.71S
CAMP DOUGLAS   NOT AVBL
$$

WIZ011>013-019>022-031-037>040-048>050-231800-
NORTHEAST WISCONSIN

CITY           SKY/WX    TMP DP  RH WIND       PRES   REMARKS
ANTIGO         SUNNY     69  50  51 W16       29.68S
SHAWANO        SUNNY     76  52  43 W12       29.65F
OCONTO         MOSUNNY   76  47  35 W13       29.63F
STURGEON BAY     N/A     74  53  48 W8          N/A
GREEN BAY      MOSUNNY   77  53  43 W8G18     29.65F
MANITOWOC      NOT AVBL
APPLETON       MOSUNNY   73  50  43 W12       29.67S
CLINTONVILLE   SUNNY     73  50  43 W12       29.66S
OSHKOSH        MOSUNNY   75  55  49 W7        29.67F
$$

WIZ032>034-041-042-053>061-231800-
SOUTHWEST WISCONSIN

CITY           SKY/WX    TMP DP  RH WIND       PRES   REMARKS
LA CROSSE      SUNNY     77  54  44 NW12      29.74R
SPARTA         SUNNY     73  53  50 W13G18    29.74R
VIROQUA        MOSUNNY   72  58  62 W13       29.76R
BOSCOBEL       SUNNY     79  57  46 W14       29.73F HX  80
PRAIRIE DU CHI SUNNY     77  56  48 W14G20    29.75R
PLATTEVILLE    SUNNY     76  60  57 W17       29.76F
$$

WIZ056-057-062-063-064-067-068-231800-
SOUTH CENTRAL WISCONSIN

CITY           SKY/WX    TMP DP  RH WIND       PRES   REMARKS
REEDSBURG      SUNNY     75  61  60 W10       29.72S
BARABOO/DELLS  SUNNY     74  58  55 W10G16    29.72S
LONE ROCK      NOT AVBL
MINERAL POINT  SUNNY     75  61  60 W15       29.75F
MADISON        MOSUNNY   75  59  57 VRB5      29.71F
MIDDLETON      MOSUNNY   76  59  55 W6        29.73S
WATERTOWN      CLOUDY    74  55  51 W7        29.70F
MONROE         SUNNY     73  57  56 W8        29.74S
JANESVILLE     MOSUNNY   79  50  36 NW13      29.72S
$$

WIZ051-052-058>065-066-070>072-231800-
SOUTHEAST WISCONSIN

CITY           SKY/WX    TMP DP  RH WIND       PRES   REMARKS
MILWAUKEE      PTSUNNY   80  45  28 NW17G24   29.68F
WAUKESHA       SUNNY     73  52  46 W10       29.71F
MILWAUKEE/TIMM SUNNY     75  43  31 NW10G17   29.69F
RACINE         CLOUDY    77  53  43 NW10G20   29.70F
KENOSHA        CLOUDY    76  55  48 N13       29.70S
FOND DU LAC    MOSUNNY   76  49  38 W9        29.68F
SHEBOYGAN      PTSUNNY   76  51  41 NW8G18    29.67F
WEST BEND      PTSUNNY   73  45  35 NW8       29.68F
JUNEAU         CLOUDY    73  55  53 W3        29.71F
$$

LSZ147-162-231800-
LAKE SUPERIOR

STATION/POSITION TIME  TEMP    WIND        PRES    WAVE
                       AIR SEA DIR/SP/G            HT/PER
                 (UTC) (F)     (DEG/KT/KT) (MB)    (FT/S)
W MID LAKE BUOY  1550   47 39  250/ 16/ 17 1003.2R   2/ 3
DEVILS ISLAND    1600   56     240/ 18/ 22 1004.3R
SAXON HARBOR     1640   64     310/ 11/ 19 1005.1R
$$

LMZ867-665-643>646-231800-
LAKE MICHIGAN

STATION/POSITION TIME  TEMP    WIND        PRES    WAVE
                       AIR SEA DIR/SP/G            HT/PER
                 (UTC) (F)     (DEG/KT/KT) (MB)    (FT/S)
CHAMBERS ISLAND  1640   72     200/  6/ 10 1003.0F
S GREEN BAY BUOY 1630   69     200/  8/ 10 1003.6F
N MID LAKE BUOY  1550   60 56  230/  6/  8 1003.9R   1
NORTHPORT PIER   1640   73     230/  4/ 10 1002.7F
KEWAUNEE LAKESHO 1630   74     240/  4/  7 1003.9F
SHEBOYGAN LAKESH 1600   73     290/ 12/ 14 1004.4F
PORT WASHINGTON  1640   78     340/  6/ 11 1005.8F
ATWATER BUOY     1509   67 60  290/ 10/ 12 1005.9R
MILWAUKEE LAKESH 1630   75     330/  8/ 12   N/A
S MID LAKE BUOY  1550   63 61  310/ 10/ 12 1004.9F   1
KENOSHA   LAKESH 1600   71     320/ 10/ 15 1005.4
$$

TC  - TEMPERATURE IN CELSIUS
VSB - VISIBILITY IN STATUTE MILES
WCI - WIND CHILL INDEX
HX  - HEAT INDEX





USA.gov is the U.S. government's official web portal to all federal, state and local government web resources and services.